CW2274 Weather Reports


Display with metric or nautical units.
time (UTC)temp
F
wind
direction
speed
MPH
gust
MPH
rain 1hr
in
rain 24hr
in
rain mn
in
humidity
%
barometer
mb
20190425063819 68 304 1.0 2.0 0.00 0.00 0.00 28 1015.1
20190425063319 69 304 0.0 1.0 0.00 0.00 0.00 28 1015.1
20190425062818 68 304 0.0 3.0 0.00 0.00 0.00 28 1015.0
20190425062319 67 304 2.0 3.0 0.00 0.00 0.00 28 1015.0
20190425061824 68 290 1.0 3.0 0.00 0.00 0.00 27 1015.0
20190425061324 69 290 2.0 3.0 0.00 0.00 0.00 26 1014.9
20190425060826 70 290 2.0 3.0 0.00 0.00 0.00 26 1014.9
20190425060325 69 290 2.0 3.0 0.00 0.00 0.00 26 1014.9
20190425055823 69 290 1.0 2.0 0.00 0.00 0.00 26 1015.0
20190425055323 69 290 1.0 2.0 0.00 0.00 0.00 26 1014.9
20190425054825 70 290 1.0 3.0 0.00 0.00 0.00 25 1014.9
20190425054344 70 290 1.0 3.0 0.00 0.00 0.00 25 1014.9
20190425053827 70 290 2.0 4.0 0.00 0.00 0.00 25 1014.9
20190425053327 70 291 2.0 4.0 0.00 0.00 0.00 25 1014.9
20190425052828 70 291 2.0 3.0 0.00 0.00 0.00 26 1014.8
20190425052351 70 291 2.0 3.0 0.00 0.00 0.00 25 1014.9
20190425051830 70 291 2.0 3.0 0.00 0.00 0.00 26 1014.9
20190425051330 70 291 2.0 3.0 0.00 0.00 0.00 26 1014.9
20190425050814 70 291 2.0 3.0 0.00 0.00 0.00 25 1014.8
20190425050314 70 291 2.0 3.0 0.00 0.00 0.00 25 1014.8
20190425045812 70 291 2.0 3.0 0.00 0.00 0.00 25 1014.8
20190425045316 70 291 1.0 3.0 0.00 0.00 0.00 25 1014.8
20190425044818 70 291 2.0 3.0 0.00 0.00 0.00 25 1014.7
20190425044317 71 291 1.0 3.0 0.00 0.00 0.00 24 1014.7
20190425043817 71 291 2.0 3.0 0.00 0.00 0.00 24 1014.8
20190425043316 71 291 1.0 3.0 0.00 0.00 0.00 24 1014.7
20190425042817 71 291 2.0 3.0 0.00 0.00 0.00 24 1014.7
20190425042320 71 291 1.0 3.0 0.00 0.00 0.00 24 1014.8
20190425041820 72 291 2.0 3.0 0.00 0.00 0.00 23 1014.8
20190425041320 72 291 0.0 3.0 0.00 0.00 0.00 23 1014.8
20190425040820 73 291 1.0 3.0 0.00 0.00 0.00 22 1014.7
20190425040324 72 291 1.0 3.0 0.00 0.00 0.00 22 1014.7
20190425035822 73 291 1.0 3.0 0.00 0.00 0.00 22 1014.6
20190425035322 74 291 1.0 4.0 0.00 0.00 0.00 22 1014.6
20190425034823 74 294 2.0 4.0 0.00 0.00 0.00 22 1014.6
20190425034327 74 294 2.0 3.0 0.00 0.00 0.00 22 1014.5
20190425033831 74 294 2.0 3.0 0.00 0.00 0.00 22 1014.5
20190425033331 75 294 2.0 3.0 0.00 0.00 0.00 22 1014.5
20190425032812 75 294 2.0 3.0 0.00 0.00 0.00 22 1014.5
20190425032316 75 294 2.0 3.0 0.00 0.00 0.00 21 1014.4
20190425031818 75 294 2.0 3.0 0.00 0.00 0.00 21 1014.4
20190425031318 74 294 2.0 3.0 0.00 0.00 0.00 23 1014.3
20190425030819 74 294 2.0 3.0 0.00 0.00 0.00 23 1014.2
20190425030327 74 294 1.0 3.0 0.00 0.00 0.00 23 1014.3
20190425025827 74 294 2.0 2.0 0.00 0.00 0.00 23 1014.1
20190425025330 75 294 1.0 2.0 0.00 0.00 0.00 23 1014.2
20190425024813 75 294 1.0 2.0 0.00 0.00 0.00 22 1014.1
20190425024314 76 294 1.0 3.0 0.00 0.00 0.00 21 1014.0
20190425023818 77 294 1.0 3.0 0.00 0.00 0.00 20 1014.0
20190425023318 77 294 2.0 4.0 0.00 0.00 0.00 20 1013.8
20190425022817 78 294 2.0 4.0 0.00 0.00 0.00 19 1013.8
20190425022320 78 294 1.0 3.0 0.00 0.00 0.00 19 1013.8
20190425021821 79 294 1.0 4.0 0.00 0.00 0.00 18 1013.6
20190425021325 79 294 2.0 4.0 0.00 0.00 0.00 17 1013.5
20190425020826 80 292 1.0 4.0 0.00 0.00 0.00 17 1013.5
20190425020314 80 290 1.0 5.0 0.00 0.00 0.00 17 1013.5
20190425015814 80 313 1.0 6.0 0.00 0.00 0.00 17 1013.4
20190425015314 81 315 1.0 6.0 0.00 0.00 0.00 16 1013.5
20190425014818 81 301 1.0 9.0 0.00 0.00 0.00 16 1013.4
20190425014321 81 296 3.0 9.0 0.00 0.00 0.00 16 1013.3
20190425013825 82 309 2.0 8.0 0.00 0.00 0.00 16 1013.3
20190425013329 82 310 1.0 7.0 0.00 0.00 0.00 16 1013.2
20190425012813 82 313 2.0 8.0 0.00 0.00 0.00 15 1013.3
20190425012315 82 312 3.0 9.0 0.00 0.00 0.00 15 1013.2
20190425011816 83 298 2.0 9.0 0.00 0.00 0.00 15 1013.2
20190425011319 83 324 3.0 9.0 0.00 0.00 0.00 14 1013.3
20190425010827 83 285 5.0 9.0 0.00 0.00 0.00 14 1013.2
20190425010331 84 273 4.0 10.0 0.00 0.00 0.00 14 1013.1
20190425005812 84 283 3.0 12.0 0.00 0.00 0.00 14 1013.1
20190425005313 84 271 4.0 8.0 0.00 0.00 0.00 14 1013.2
20190425004816 84 278 4.0 8.0 0.00 0.00 0.00 13 1013.1
20190425004319 85 277 3.0 8.0 0.00 0.00 0.00 15 1013.2
20190425003821 85 348 4.0 8.0 0.00 0.00 0.00 14 1013.2
20190425003325 86 281 4.0 9.0 0.00 0.00 0.00 14 1013.3
20190425002828 86 254 5.0 11.0 0.00 0.00 0.00 15 1013.2
20190425002331 86 304 3.0 11.0 0.00 0.00 0.00 15 1013.2
20190425001815 86 282 3.0 7.0 0.00 0.00 0.00 14 1013.3
20190425001320 86 281 2.0 9.0 0.00 0.00 0.00 15 1013.2
20190425000823 86 282 4.0 14.0 0.00 0.00 0.00 15 1013.3
20190425000325 86 276 6.0 14.0 0.00 0.00 0.00 15 1013.3
20190424235826 86 284 6.0 10.0 0.00 0.00 0.00 16 1013.2
20190424235330 86 282 4.0 11.0 0.00 0.00 0.00 15 1013.3
20190424234814 87 286 6.0 11.0 0.00 0.00 0.00 15 1013.4
20190424234316 87 244 3.0 10.0 0.00 0.00 0.00 15 1013.3
20190424233819 88 348 2.0 9.0 0.00 0.00 0.00 14 1013.3
20190424233322 87 347 3.0 9.0 0.00 0.00 0.00 14 1013.3
20190424232826 88 6 4.0 8.0 0.00 0.00 0.00 14 1013.3
20190424232330 87 290 3.0 12.0 0.00 0.00 0.00 14 1013.3
20190424231816 87 275 6.0 12.0 0.00 0.00 0.00 15 1013.3
20190424231319 88 329 2.0 10.0 0.00 0.00 0.00 15 1013.3
20190424230823 88 286 2.0 8.0 0.00 0.00 0.00 15 1013.2
20190424230325 87 335 1.0 9.0 0.00 0.00 0.00 16 1013.3
20190424225825 88 292 3.0 7.0 0.00 0.00 0.00 16 1013.4
20190424225329 88 340 3.0 7.0 0.00 0.00 0.00 15 1013.4
20190424224831 88 329 3.0 10.0 0.00 0.00 0.00 14 1013.4
20190424224315 88 288 2.0 6.0 0.00 0.00 0.00 16 1013.5
20190424223819 87 360 4.0 6.0 0.00 0.00 0.00 16 1013.5
20190424223321 88 302 3.0 8.0 0.00 0.00 0.00 16 1013.5
20190424222822 88 321 3.0 11.0 0.00 0.00 0.00 16 1013.5
20190424222327 87 290 6.0 11.0 0.00 0.00 0.00 16 1013.5
20190424221830 87 46 2.0 10.0 0.00 0.00 0.00 16 1013.5
20190424221314 87 273 3.0 7.0 0.00 0.00 0.00 17 1013.6
20190424220817 85 37 2.0 7.0 0.00 0.00 0.00 17 1013.7
20190424220321 88 289 2.0 9.0 0.00 0.00 0.00 16 1013.9
20190424215821 88 290 3.0 9.0 0.00 0.00 0.00 16 1014.0
20190424215324 86 18 3.0 6.0 0.00 0.00 0.00 17 1014.0
20190424214827 87 296 3.0 7.0 0.00 0.00 0.00 17 1014.1
20190424214325 87 283 2.0 8.0 0.00 0.00 0.00 17 1014.2
20190424213826 86 300 3.0 8.0 0.00 0.00 0.00 17 1014.2
20190424213328 88 300 4.0 8.0 0.00 0.00 0.00 16 1014.3
20190424212825 87 298 2.0 10.0 0.00 0.00 0.00 17 1014.3
20190424212323 88 296 3.0 8.0 0.00 0.00 0.00 17 1014.4
20190424211825 89 265 2.0 10.0 0.00 0.00 0.00 16 1014.4
20190424211323 88 355 4.0 10.0 0.00 0.00 0.00 17 1014.4
20190424210821 85 33 5.0 9.0 0.00 0.00 0.00 18 1014.5
20190424210318 85 51 1.0 9.0 0.00 0.00 0.00 18 1014.5
20190424205814 85 100 4.0 13.0 0.00 0.00 0.00 19 1014.5
20190424205330 86 38 6.0 13.0 0.00 0.00 0.00 18 1014.8
20190424204829 85 4 3.0 9.0 0.00 0.00 0.00 18 1014.8
20190424204328 87 40 4.0 8.0 0.00 0.00 0.00 17 1014.8
20190424203830 85 5 2.0 8.0 0.00 0.00 0.00 19 1014.9
20190424203327 86 338 4.0 8.0 0.00 0.00 0.00 18 1014.9
20190424202830 84 88 4.0 8.0 0.00 0.00 0.00 18 1015.0
20190424202328 86 309 1.0 6.0 0.00 0.00 0.00 18 1015.0
20190424201828 83 39 3.0 8.0 0.00 0.00 0.00 19 1015.1
20190424201312 84 31 4.0 8.0 0.00 0.00 0.00 19 1015.1
20190424200813 86 319 3.0 9.0 0.00 0.00 0.00 19 1015.1
20190424200313 85 339 2.0 12.0 0.00 0.00 0.00 17 1015.1
20190424195812 85 254 4.0 12.0 0.00 0.00 0.00 18 1015.1
20190424195311 84 258 4.0 8.0 0.00 0.00 0.00 19 1015.1
20190424194812 81 92 1.0 8.0 0.00 0.00 0.00 21 1015.2
20190424194312 83 20 4.0 10.0 0.00 0.00 0.00 18 1015.3
20190424193813 84 317 2.0 7.0 0.00 0.00 0.00 18 1015.3
20190424193333 83 358 3.0 7.0 0.00 0.00 0.00 18 1015.4
20190424192828 84 273 4.0 9.0 0.00 0.00 0.00 19 1015.4
20190424192327 83 2 5.0 11.0 0.00 0.00 0.00 17 1015.4
20190424191828 82 70 4.0 11.0 0.00 0.00 0.00 19 1015.4
20190424191327 83 269 1.0 8.0 0.00 0.00 0.00 19 1015.4
20190424190903 81 245 3.0 10.0 0.00 0.00 0.00 19 1015.6
20190424185925 81 63 2.0 10.0 0.00 0.00 0.00 21 1015.6
20190424185425 81 88 2.0 9.0 0.00 0.00 0.00 20 1015.6
20190424184925 81 339 5.0 9.0 0.00 0.00 0.00 21 1015.9
20190424184425 81 298 3.0 7.0 0.00 0.00 0.00 20 1015.8
20190424183928 84 312 3.0 6.0 0.00 0.00 0.00 18 1015.8
20190424183427 80 282 2.0 6.0 0.00 0.00 0.00 21 1015.9
20190424182926 79 36 3.0 6.0 0.00 0.00 0.00 22 1015.9
20190424182425 79 40 4.0 5.0 0.00 0.00 0.00 22 1016.2
20190424181925 77 358 1.0 5.0 0.00 0.00 0.00 24 1016.2
20190424181425 79 358 3.0 8.0 0.00 0.00 0.00 22 1016.3
20190424180929 81 332 3.0 8.0 0.00 0.00 0.00 21 1016.4
20190424180428 78 215 2.0 5.0 0.00 0.00 0.00 23 1016.4
20190424175414 78 62 2.0 6.0 0.00 0.00 0.00 24 1016.5
20190424174913 76 75 3.0 8.0 0.00 0.00 0.00 26 1016.6
20190424174414 78 11 2.0 5.0 0.00 0.00 0.00 24 1016.6
20190424173913 78 4 3.0 6.0 0.00 0.00 0.00 24 1016.7
20190424173412 76 35 2.0 8.0 0.00 0.00 0.00 24 1016.6
20190424172912 77 92 3.0 8.0 0.00 0.00 0.00 26 1016.7
20190424172415 77 92 3.0 6.0 0.00 0.00 0.00 24 1016.7
20190424171915 76 109 2.0 4.0 0.00 0.00 0.00 26 1016.8
20190424171419 75 79 1.0 8.0 0.00 0.00 0.00 26 1016.8
20190424170922 75 79 2.0 8.0 0.00 0.00 0.00 27 1016.8
20190424170423 74 112 2.0 7.0 0.00 0.00 0.00 27 1016.8
20190424165923 74 76 3.0 8.0 0.00 0.00 0.00 28 1016.8
20190424165421 74 119 4.0 8.0 0.00 0.00 0.00 27 1016.8
20190424164921 74 113 3.0 6.0 0.00 0.00 0.00 27 1016.9
20190424164420 73 132 2.0 8.0 0.00 0.00 0.00 29 1016.9
20190424163920 73 110 3.0 8.0 0.00 0.00 0.00 28 1016.8
20190424163419 73 73 4.0 8.0 0.00 0.00 0.00 29 1016.8
20190424162919 72 123 3.0 6.0 0.00 0.00 0.00 29 1016.8
20190424162419 72 124 2.0 6.0 0.00 0.00 0.00 29 1016.8
20190424161922 71 123 3.0 9.0 0.00 0.00 0.00 30 1016.9
20190424161423 72 100 5.0 9.0 0.00 0.00 0.00 30 1016.8
20190424160927 70 100 4.0 8.0 0.00 0.00 0.00 31 1016.8
20190424160430 71 121 3.0 6.0 0.00 0.00 0.00 30 1016.8
20190424155927 71 100 2.0 5.0 0.00 0.00 0.00 32 1016.8
20190424155426 70 138 2.0 5.0 0.00 0.00 0.00 34 1016.8
20190424154925 70 159 3.0 7.0 0.00 0.00 0.00 33 1016.8
20190424154425 68 90 3.0 8.0 0.00 0.00 0.00 34 1016.8
20190424153925 68 123 3.0 8.0 0.00 0.00 0.00 35 1016.8
20190424153425 66 126 3.0 8.0 0.00 0.00 0.00 36 1016.8
20190424152924 66 126 3.0 6.0 0.00 0.00 0.00 36 1016.7
20190424152423 66 146 3.0 6.0 0.00 0.00 0.00 38 1016.7
20190424151922 65 132 3.0 6.0 0.00 0.00 0.00 38 1016.8
20190424151426 64 121 4.0 6.0 0.00 0.00 0.00 39 1016.7
20190424150926 63 128 4.0 8.0 0.00 0.00 0.00 40 1016.7
20190424150425 63 146 4.0 8.0 0.00 0.00 0.00 40 1016.7
20190424145922 63 134 3.0 6.0 0.00 0.00 0.00 40 1016.7
20190424145421 64 164 1.0 5.0 0.00 0.00 0.00 41 1016.7
20190424144920 62 125 2.0 5.0 0.00 0.00 0.00 42 1016.8
20190424144420 61 140 2.0 5.0 0.00 0.00 0.00 43 1016.8
20190424143923 62 211 2.0 5.0 0.00 0.00 0.00 43 1016.8
20190424143425 60 169 2.0 5.0 0.00 0.00 0.00 44 1016.7
20190424142927 61 133 1.0 8.0 0.00 0.00 0.00 45 1016.7
20190424142427 59 164 3.0 8.0 0.00 0.00 0.00 46 1016.7
20190424141927 59 137 2.0 9.0 0.00 0.00 0.00 46 1016.6
20190424141425 59 190 4.0 9.0 0.00 0.00 0.00 46 1016.7
20190424140929 58 141 4.0 9.0 0.00 0.00 0.00 47 1016.6
20190424140427 58 116 3.0 8.0 0.00 0.00 0.00 47 1016.6
20190424135925 58 154 3.0 5.0 0.00 0.00 0.00 47 1016.6
20190424135424 58 190 2.0 5.0 0.00 0.00 0.00 47 1016.6
20190424134924 57 175 2.0 5.0 0.00 0.00 0.00 48 1016.5
20190424134426 57 188 3.0 6.0 0.00 0.00 0.00 48 1016.4
20190424133924 57 203 3.0 6.0 0.00 0.00 0.00 48 1016.4
20190424133424 57 191 3.0 6.0 0.00 0.00 0.00 49 1016.3
20190424132923 56 178 2.0 5.0 0.00 0.00 0.00 50 1016.2
20190424132423 56 181 3.0 5.0 0.00 0.00 0.00 51 1016.2
20190424131923 55 196 1.0 4.0 0.00 0.00 0.00 51 1016.2
20190424131422 55 196 2.0 4.0 0.00 0.00 0.00 51 1016.1
20190424130922 55 196 3.0 4.0 0.00 0.00 0.00 52 1016.0
20190424130426 54 197 2.0 4.0 0.00 0.00 0.00 53 1015.8
20190424125924 54 196 2.0 4.0 0.00 0.00 0.00 53 1015.8
20190424125423 54 199 2.0 4.0 0.00 0.00 0.00 54 1015.7
20190424124922 54 188 2.0 4.0 0.00 0.00 0.00 54 1015.6
20190424124422 53 188 2.0 4.0 0.00 0.00 0.00 55 1015.5
20190424123921 54 186 2.0 3.0 0.00 0.00 0.00 54 1015.4
20190424123419 54 186 1.0 3.0 0.00 0.00 0.00 54 1015.4
20190424122918 53 186 0.0 3.0 0.00 0.00 0.00 55 1015.2
20190424122417 53 186 0.0 3.0 0.00 0.00 0.00 54 1015.2
20190424121919 54 186 2.0 3.0 0.00 0.00 0.00 54 1015.1
20190424121421 53 186 2.0 3.0 0.00 0.00 0.00 55 1015.0
20190424120924 54 186 1.0 3.0 0.00 0.00 0.00 54 1015.0
20190424120412 54 186 2.0 3.0 0.00 0.00 0.00 53 1015.0
20190424115910 54 186 2.0 3.0 0.00 0.00 0.00 53 1015.0
20190424115410 54 186 2.0 4.0 0.00 0.00 0.00 53 1015.0
20190424114929 55 186 3.0 4.0 0.00 0.00 0.00 52 1014.9
20190424114429 54 192 2.0 4.0 0.00 0.00 0.00 53 1014.8
20190424113929 55 192 2.0 5.0 0.00 0.00 0.00 53 1014.8
20190424113428 54 193 3.0 5.0 0.00 0.00 0.00 55 1014.8
20190424112927 55 208 1.0 2.0 0.00 0.00 0.00 51 1014.7
20190424112426 55 208 0.0 2.0 0.00 0.00 0.00 52 1014.7
20190424111925 55 208 0.0 2.0 0.00 0.00 0.00 53 1014.7
20190424111426 56 208 0.0 2.0 0.00 0.00 0.00 51 1014.7
20190424110925 56 208 0.0 3.0 0.00 0.00 0.00 51 1014.7
20190424110425 56 208 1.0 3.0 0.00 0.00 0.00 50 1014.7
20190424105922 57 208 2.0 3.0 0.00 0.00 0.00 50 1014.7
20190424105426 57 203 2.0 3.0 0.00 0.00 0.00 50 1014.7
20190424104929 57 203 1.0 3.0 0.00 0.00 0.00 50 1014.7
20190424104428 57 202 1.0 4.0 0.00 0.00 0.00 49 1014.7
20190424103926 57 203 2.0 5.0 0.00 0.00 0.00 50 1014.7
20190424103426 57 204 3.0 5.0 0.00 0.00 0.00 50 1014.9
20190424102924 57 200 3.0 4.0 0.00 0.00 0.00 50 1014.9
20190424102428 57 199 1.0 4.0 0.00 0.00 0.00 49 1014.9
20190424101911 57 200 1.0 2.0 0.00 0.00 0.00 49 1014.9
20190424101414 57 200 1.0 2.0 0.00 0.00 0.00 49 1014.9
20190424100918 58 200 1.0 2.0 0.00 0.00 0.00 48 1014.9
20190424100421 58 203 1.0 2.0 0.00 0.00 0.00 48 1015.0
20190424095921 58 203 1.0 3.0 0.00 0.00 0.00 47 1014.9
20190424095427 58 203 1.0 4.0 0.00 0.00 0.00 48 1014.9
20190424094927 58 203 3.0 4.0 0.00 0.00 0.00 47 1015.0
20190424094427 58 204 2.0 4.0 0.00 0.00 0.00 48 1015.0
20190424093910 58 217 2.0 4.0 0.00 0.00 0.00 48 1015.0
20190424093413 58 217 3.0 5.0 0.00 0.00 0.00 49 1015.0
20190424092916 58 218 3.0 5.0 0.00 0.00 0.00 49 1015.0
20190424092419 58 217 2.0 3.0 0.00 0.00 0.00 49 1015.0
20190424091922 58 217 1.0 2.0 0.00 0.00 0.00 48 1015.0
20190424091425 58 217 1.0 3.0 0.00 0.00 0.00 48 1015.0
20190424090924 58 217 2.0 5.0 0.00 0.00 0.00 48 1015.1
20190424090424 58 217 2.0 5.0 0.00 0.00 0.00 48 1015.1
20190424085922 58 219 3.0 4.0 0.00 0.00 0.00 50 1015.2
20190424085425 58 217 3.0 5.0 0.00 0.00 0.00 50 1015.1
20190424084925 57 218 3.0 5.0 0.00 0.00 0.00 51 1015.0
20190424084425 56 218 2.0 3.0 0.00 0.00 0.00 52 1015.1
20190424083924 56 218 1.0 2.0 0.00 0.00 0.00 52 1015.1
20190424083423 56 218 1.0 2.0 0.00 0.00 0.00 52 1015.1
20190424082922 55 218 0.0 3.0 0.00 0.00 0.00 53 1015.1
20190424082421 57 218 2.0 3.0 0.00 0.00 0.00 51 1015.0
20190424081921 57 218 1.0 2.0 0.00 0.00 0.00 51 1015.0
20190424081422 57 218 0.0 2.0 0.00 0.00 0.00 52 1015.0
20190424080923 58 218 0.0 3.0 0.00 0.00 0.00 50 1015.0
20190424080426 58 218 2.0 3.0 0.00 0.00 0.00 49 1015.1
20190424075928 58 218 1.0 3.0 0.00 0.00 0.00 49 1015.1
20190424075416 58 218 2.0 3.0 0.00 0.00 0.00 50 1015.0
20190424074920 58 218 2.0 3.0 0.00 0.00 0.00 49 1015.1
20190424074423 58 218 2.0 3.0 0.00 0.00 0.00 49 1015.1
20190424073927 58 218 1.0 2.0 0.00 0.00 0.00 49 1015.0
20190424073409 58 218 2.0 2.0 0.00 0.00 0.00 48 1015.0
20190424072913 58 218 1.0 2.0 0.00 0.00 0.00 49 1015.0
20190424072417 58 218 0.0 2.0 0.00 0.00 0.00 48 1015.0
20190424071920 59 218 1.0 3.0 0.00 0.00 0.00 47 1015.0
20190424071424 59 218 2.0 3.0 0.00 0.00 0.00 47 1015.0
20190424070928 60 218 2.0 3.0 0.00 0.00 0.00 45 1015.0
20190424070411 60 217 1.0 2.0 0.00 0.00 0.00 46 1015.0
20190424065918 60 217 1.0 2.0 0.00 0.00 0.00 46 1015.0
20190424065420 59 217 1.0 2.0 0.00 0.00 0.00 48 1015.1
20190424064923 60 218 1.0 3.0 0.00 0.00 0.00 46 1015.0
20190424064427 60 218 2.0 3.0 0.00 0.00 0.00 46 1015.0